• In Hungary
  • List of Countries
  • For 7 days
  • Water Temperature
  • Satellite Maps
  • Weather Map
  • News
  • Weather Widgets
  • user-avatar
    Login

    Hourly Weather Karima

    Today, 19 January, Friday

    Time Temperature Precipitation Wind Pressure Humidity
    00:00 +19°C° 0 mm 4 mps 736 mmHg 20%
    01:00 +18°C° 0 mm 4 mps 736 mmHg 22%
    02:00 +17°C° 0 mm 4 mps 736 mmHg 23%
    03:00 +17°C° 0 mm 4 mps 736 mmHg 25%
    04:00 +15°C° 0 mm 4 mps 736 mmHg 26%
    05:00 +14°C° 0 mm 4 mps 736 mmHg 28%
    06:00 +15°C° 0 mm 5 mps 737 mmHg 28%
    07:00 +15°C° 0 mm 5 mps 737 mmHg 27%
    08:00 +16°C° 0 mm 5 mps 737 mmHg 27%
    09:00 +19°C° 0 mm 6 mps 738 mmHg 23%
    10:00 +21°C° 0 mm 6 mps 738 mmHg 19%
    11:00 +24°C° 0 mm 6 mps 738 mmHg 15%
    12:00 +26°C° 0 mm 6 mps 738 mmHg 14%
    13:00 +27°C° 0 mm 6 mps 737 mmHg 12%
    14:00 +28°C° 0 mm 5 mps 737 mmHg 10%
    15:00 +27°C° 0 mm 5 mps 736 mmHg 10%
    16:00 +27°C° 0 mm 5 mps 736 mmHg 10%
    17:00 +27°C° 0 mm 5 mps 736 mmHg 10%
    18:00 +25°C° 0 mm 5 mps 737 mmHg 11%
    19:00 +23°C° 0 mm 4 mps 737 mmHg 13%
    20:00 +21°C° 0 mm 4 mps 737 mmHg 14%
    21:00 +20°C° 0 mm 4 mps 737 mmHg 15%
    22:00 +20°C° 0 mm 5 mps 738 mmHg 16%
    23:00 +19°C° 0 mm 5 mps 738 mmHg 17%

    Tomorrow, 20 January, Saturday

    Time Temperature Precipitation Wind Pressure Humidity
    00:00 +17°C° 0 mm 5 mps 738 mmHg 19%
    01:00 +16°C° 0 mm 5 mps 738 mmHg 21%
    02:00 +16°C° 0 mm 5 mps 737 mmHg 23%
    03:00 +15°C° 0 mm 5 mps 737 mmHg 25%
    04:00 +15°C° 0 mm 5 mps 737 mmHg 28%
    05:00 +14°C° 0 mm 5 mps 737 mmHg 30%
    06:00 +14°C° 0 mm 5 mps 737 mmHg 29%
    07:00 +15°C° 0 mm 6 mps 738 mmHg 29%
    08:00 +15°C° 0 mm 6 mps 738 mmHg 28%
    09:00 +19°C° 0 mm 6 mps 738 mmHg 24%
    10:00 +21°C° 0 mm 6 mps 738 mmHg 20%
    11:00 +24°C° 0 mm 6 mps 738 mmHg 16%
    12:00 +26°C° 0 mm 6 mps 737 mmHg 14%
    13:00 +28°C° 0 mm 5 mps 737 mmHg 13%
    14:00 +29°C° 0 mm 5 mps 736 mmHg 12%
    15:00 +29°C° 0 mm 4 mps 736 mmHg 12%
    16:00 +28°C° 0 mm 4 mps 735 mmHg 12%
    17:00 +28°C° 0 mm 3 mps 735 mmHg 13%
    18:00 +27°C° 0 mm 4 mps 735 mmHg 14%
    19:00 +25°C° 0 mm 4 mps 736 mmHg 14%
    20:00 +23°C° 0 mm 4 mps 736 mmHg 15%
    21:00 +22°C° 0 mm 4 mps 736 mmHg 15%
    22:00 +21°C° 0 mm 4 mps 736 mmHg 15%
    23:00 +20°C° 0 mm 4 mps 736 mmHg 15%

    Day after tomorrow, 21 January, Sunday

    Time Temperature Precipitation Wind Pressure Humidity
    00:00 +20°C° 0 mm 4 mps 736 mmHg 15%
    01:00 +19°C° 0 mm 4 mps 736 mmHg 16%
    02:00 +19°C° 0 mm 4 mps 735 mmHg 16%
    03:00 +18°C° 0 mm 4 mps 735 mmHg 19%
    04:00 +18°C° 0 mm 4 mps 735 mmHg 21%
    05:00 +18°C° 0 mm 4 mps 735 mmHg 24%
    06:00 +18°C° 0 mm 4 mps 735 mmHg 28%
    07:00 +19°C° 0 mm 5 mps 736 mmHg 33%
    08:00 +20°C° 0 mm 5 mps 736 mmHg 38%
    09:00 +22°C° 0 mm 5 mps 736 mmHg 35%
    10:00 +25°C° 0 mm 5 mps 736 mmHg 32%
    11:00 +28°C° 0 mm 5 mps 736 mmHg 30%
    12:00 +29°C° 0 mm 4 mps 736 mmHg 26%
    13:00 +30°C° 0 mm 4 mps 735 mmHg 22%
    14:00 +31°C° 0 mm 3 mps 734 mmHg 19%
    15:00 +31°C° 0 mm 3 mps 734 mmHg 18%
    16:00 +30°C° 0 mm 2 mps 733 mmHg 18%
    17:00 +30°C° 0 mm 2 mps 733 mmHg 17%
    18:00 +29°C° 0 mm 3 mps 734 mmHg 19%
    19:00 +27°C° 0 mm 3 mps 734 mmHg 20%
    20:00 +26°C° 0 mm 3 mps 735 mmHg 22%
    21:00 +25°C° 0 mm 3 mps 735 mmHg 23%
    22:00 +25°C° 0 mm 3 mps 735 mmHg 23%
    23:00 +24°C° 0 mm 3 mps 735 mmHg 24%

    22 January, Monday

    Time Temperature Precipitation Wind Pressure Humidity
    00:00 +22°C° 0 mm 3 mps 735 mmHg 25%
    01:00 +22°C° 0 mm 3 mps 735 mmHg 26%
    02:00 +21°C° 0 mm 3 mps 734 mmHg 26%
    03:00 +20°C° 0 mm 3 mps 734 mmHg 27%
    04:00 +20°C° 0 mm 3 mps 734 mmHg 27%
    05:00 +19°C° 0 mm 3 mps 734 mmHg 28%
    06:00 +19°C° 0 mm 3 mps 735 mmHg 27%
    07:00 +20°C° 0 mm 3 mps 735 mmHg 26%
    08:00 +21°C° 0 mm 3 mps 736 mmHg 25%
    09:00 +23°C° 0 mm 4 mps 736 mmHg 23%
    10:00 +26°C° 0 mm 4 mps 736 mmHg 20%
    11:00 +28°C° 0 mm 4 mps 736 mmHg 17%
    12:00 +29°C° 0 mm 4 mps 735 mmHg 16%
    13:00 +30°C° 0 mm 4 mps 734 mmHg 14%
    14:00 +32°C° 0 mm 4 mps 733 mmHg 13%
    15:00 +32°C° 0 mm 4 mps 734 mmHg 13%
    16:00 +30°C° 0 mm 4 mps 734 mmHg 13%
    17:00 +30°C° 0 mm 4 mps 734 mmHg 13%
    18:00 +28°C° 0 mm 5 mps 734 mmHg 15%
    19:00 +26°C° 0 mm 5 mps 735 mmHg 17%
    20:00 +25°C° 0 mm 5 mps 736 mmHg 18%
    21:00 +23°C° 0 mm 4 mps 736 mmHg 19%
    22:00 +22°C° 0 mm 4 mps 736 mmHg 19%
    23:00 +21°C° 0 mm 4 mps 736 mmHg 20%

    23 January, Tuesday

    Time Temperature Precipitation Wind Pressure Humidity
    00:00 +20°C° 0 mm 4 mps 736 mmHg 20%
    01:00 +20°C° 0 mm 5 mps 736 mmHg 19%
    02:00 +19°C° 0 mm 5 mps 736 mmHg 19%
    03:00 +17°C° 0 mm 5 mps 736 mmHg 19%
    04:00 +17°C° 0 mm 5 mps 736 mmHg 18%
    05:00 +16°C° 0 mm 5 mps 736 mmHg 18%
    06:00 +16°C° 0 mm 6 mps 736 mmHg 19%
    07:00 +16°C° 0 mm 6 mps 737 mmHg 21%
    08:00 +17°C° 0 mm 7 mps 738 mmHg 22%
    09:00 +20°C° 0 mm 7 mps 738 mmHg 20%
    10:00 +22°C° 0 mm 7 mps 738 mmHg 18%
    11:00 +24°C° 0 mm 7 mps 738 mmHg 16%
    12:00 +26°C° 0 mm 7 mps 737 mmHg 15%
    13:00 +27°C° 0 mm 7 mps 736 mmHg 13%
    14:00 +28°C° 0 mm 7 mps 735 mmHg 11%
    15:00 +28°C° 0 mm 7 mps 735 mmHg 12%
    16:00 +27°C° 0 mm 6 mps 735 mmHg 13%
    17:00 +27°C° 0 mm 6 mps 735 mmHg 14%
    18:00 +25°C° 0 mm 5 mps 735 mmHg 16%
    19:00 +23°C° 0 mm 5 mps 736 mmHg 18%
    20:00 +21°C° 0 mm 5 mps 736 mmHg 20%
    21:00 +20°C° 0 mm 5 mps 736 mmHg 23%
    22:00 +20°C° 0 mm 5 mps 736 mmHg 26%
    23:00 +19°C° 0 mm 5 mps 736 mmHg 29%

    24 January, Wednesday

    Time Temperature Precipitation Wind Pressure Humidity
    00:00 +17°C° 0 mm 5 mps 736 mmHg 32%
    01:00 +17°C° 0 mm 5 mps 736 mmHg 36%
    02:00 +16°C° 0 mm 5 mps 735 mmHg 40%
    03:00 +16°C° 0 mm 5 mps 735 mmHg 42%
    04:00 +15°C° 0 mm 5 mps 735 mmHg 44%
    05:00 +15°C° 0 mm 4 mps 736 mmHg 47%
    06:00 +15°C° 0 mm 5 mps 736 mmHg 45%
    07:00 +15°C° 0 mm 6 mps 736 mmHg 44%
    08:00 +16°C° 0 mm 6 mps 737 mmHg 42%
    09:00 +19°C° 0 mm 6 mps 737 mmHg 36%
    10:00 +21°C° 0 mm 6 mps 736 mmHg 30%
    11:00 +24°C° 0 mm 6 mps 736 mmHg 24%
    12:00 +26°C° 0 mm 6 mps 736 mmHg 21%
    13:00 +27°C° 0 mm 5 mps 735 mmHg 19%
    14:00 +28°C° 0 mm 5 mps 734 mmHg 16%
    15:00 +28°C° 0 mm 5 mps 734 mmHg 16%
    16:00 +28°C° 0 mm 5 mps 734 mmHg 16%
    17:00 +27°C° 0 mm 4 mps 734 mmHg 15%
    18:00 +26°C° 0 mm 4 mps 734 mmHg 17%
    19:00 +23°C° 0 mm 4 mps 734 mmHg 18%
    20:00 +22°C° 0 mm 4 mps 735 mmHg 20%
    21:00 +21°C° 0 mm 4 mps 735 mmHg 21%
    22:00 +20°C° 0 mm 4 mps 735 mmHg 22%
    23:00 +19°C° 0 mm 4 mps 735 mmHg 23%
    Show more